Alexandria, Egypt

2:22 AM EET on July 28, 2017 (GMT +0200)
Alexandria

Weather History for HEAX - September, 2013

Change the Weather History Date:

Tuesday, September 24, 2013

  Actual Average Record
Temperature  
Mean Temperature 74 °F -  
Max Temperature 84 °F 79 °F 95 °F (2015)
Min Temperature 64 °F 65 °F 64 °F (2013)
Cooling Degree Days 9    
Growing Degree Days 24 (Base 50)    
Moisture  
Dew Point 63 °F    
Average Humidity 62    
Maximum Humidity 88    
Minimum Humidity 42    
Precipitation  
Precipitation 0.00 in 0.01 in - ()
Sea Level Pressure  
Sea Level Pressure 29.93 in    
Wind  
Wind Speed 6 mph ()    
Max Wind Speed 12 mph    
Max Gust Speed -    
Visibility 6.1 miles    
Events      
Averages and records for this station are not official NWS values.
T = Trace of Precipitation, MM = Missing Value Source: Averaged Metar Reports

Daily Weather History Graph

Daily Weather History Graph

Search for Another Location

Airport or City:

Trip Planner

Search our weather history database for the weather conditions in past years. The results will help you decide how hot, cold, wet, or windy it might be!

Date:

Astronomy

Sep. 24, 2013 Rise Set
Actual Time 5:49 AM EET 5:54 PM EET
Civil Twilight 5:25 AM EET 6:18 PM EET
Nautical Twilight 4:57 AM EET 6:46 PM EET
Astronomical Twilight 4:28 AM EET 7:14 PM EET
Moon 9:15 PM EET (9/24) 10:27 AM EET (9/24)
Length of Visible Light 12h 53m
Length of Day
12h 04m
Waning Gibbous, 75% of the Moon is Illuminated
Sep 24
Waning Gibbous
Sep 27
Last Quarter
Oct 5
New
Oct 12
First Quarter
Oct 19
Full

Hourly Weather History & Observations

Time (EET) Temp. Heat Index Dew Point Humidity Pressure Visibility Wind Dir Wind Speed Gust Speed Precip Events Conditions
12:00 AM 75.2 °F - 62.6 °F 65% 29.89 in - NW 6.9 mph - N/A   Clear
1:00 AM 75.2 °F - 62.6 °F 65% 29.89 in - WNW 9.2 mph - N/A   Clear
2:00 AM 74 °F - 62 °F 59% 29.89 in 6 mi WNW 6.9 mph - -  
2:00 AM 75.2 °F - 62.6 °F 65% 29.89 in - WNW 6.9 mph - N/A   Clear
3:00 AM 75.2 °F - 62.6 °F 65% 29.86 in - WNW 5.8 mph - N/A   Clear
4:00 AM 73.4 °F - 62.6 °F 69% 29.86 in - NW 6.9 mph - N/A   Clear
5:00 AM 68.0 °F - 62.6 °F 83% 29.86 in - Calm Calm - N/A   Clear
6:00 AM 64.4 °F - 60.8 °F 88% 29.89 in 3.7 mi South 2.3 mph - N/A   Partly Cloudy
7:00 AM 69.8 °F - 64.4 °F 83% 29.89 in 6.2 mi South 2.3 mph - N/A   Scattered Clouds
8:00 AM 75 °F - 66 °F 66% 29.92 in 6 mi SSW 5.8 mph - -   Partly Cloudy
8:00 AM 75.2 °F - 66.2 °F 73% 29.92 in 6.2 mi SSW 5.8 mph - N/A   Scattered Clouds
9:00 AM 78.8 °F - 64.4 °F 61% 29.92 in 6.2 mi NW 6.9 mph - N/A   Scattered Clouds
10:00 AM 80.6 °F 81.8 °F 62.6 °F 54% 29.95 in 6.2 mi NW 8.1 mph - N/A   Scattered Clouds
11:00 AM 84.2 °F 85.0 °F 62.6 °F 48% 29.95 in 6.2 mi WNW 9.2 mph - N/A   Scattered Clouds
12:00 PM 82.4 °F 83.4 °F 62.6 °F 51% 29.95 in 6.2 mi West 9.2 mph - N/A   Scattered Clouds
1:00 PM 82.4 °F 83.4 °F 62.6 °F 51% 29.95 in 6.2 mi West 11.5 mph - N/A   Scattered Clouds
2:00 PM 83 °F - 64 °F 42% 29.96 in 6 mi NW 8.1 mph - -   Partly Cloudy
2:00 PM 82.4 °F 83.9 °F 64.4 °F 54% 29.95 in 6.2 mi NW 8.1 mph - N/A   Scattered Clouds
3:00 PM 84.2 °F 84.4 °F 60.8 °F 45% 29.95 in 6.2 mi NW 11.5 mph - N/A   Scattered Clouds
4:00 PM 80.6 °F 82.3 °F 64.4 °F 58% 29.95 in 6.2 mi NW 11.5 mph - N/A   Scattered Clouds
5:00 PM 78.8 °F - 64.4 °F 61% 29.95 in 6.2 mi NNW 10.4 mph - N/A   Scattered Clouds
6:00 PM 77.0 °F - 64.4 °F 65% 29.95 in 6.2 mi North 10.4 mph - N/A   Scattered Clouds
7:00 PM 75.2 °F - 62.6 °F 65% 29.95 in 6.2 mi NNW 8.1 mph - N/A   Scattered Clouds
8:00 PM 76 °F - 63 °F 54% 29.99 in 6 mi North 9.2 mph - -   Scattered Clouds
8:00 PM 75.2 °F - 62.6 °F 65% 29.98 in 6.2 mi North 9.2 mph - N/A   Partly Cloudy
9:00 PM 75.2 °F - 62.6 °F 65% 30.01 in 6.2 mi North 6.9 mph - N/A   Partly Cloudy
10:00 PM 75.2 °F - 62.6 °F 65% 30.01 in 6.2 mi North 8.1 mph - N/A   Partly Cloudy
11:00 PM 75.2 °F - 60.8 °F 61% 30.01 in 6.2 mi North 8.1 mph - N/A   Scattered Clouds